Skip Page Navigation
NASA JPL Caltech
NASA Logo - Jet Propulsion Laboratory + View the NASA Portal
+ Center for Near-Earth Object Studies
JPL Home Earth Solar System Stars & Galaxies Technology
JPL Solar System Dynamics
BODIES ORBITS EPHEMERIDES TOOLS PHYSICAL DATA DISCOVERY FAQ SITE MAP
JPL Small-Body Database Browser
Search: [ help ]  
(2020 FL6)
Classification: Apollo [NEO]          SPK-ID: 54016411
Ephemeris | Orbit Diagram | Orbital Elements | Mission Design | Physical Parameters | Close-Approach Data ]

[ show orbit diagram ]
Orbital Elements at Epoch 2459396.5 (2021-Jul-01.0) TDB
Reference: JPL 7 (heliocentric ecliptic J2000)
 Element Value Uncertainty (1-sigma)   Units 
e .4850860958254402 0.00055521  
a 1.657849514029044 0.0015529 au
q .853649765802592 0.00012085 au
i 3.401897367622398 0.0034546 deg
node 3.019231155908681 0.00034743 deg
peri 249.1787270397294 0.0015847 deg
M 189.5575667075403 0.26118 deg
tp 2459765.640172881719
(2022-Jul-05.14017288)
1.0843 TDB
period 779.679447602078
2.13
1.0955
0.002999
d
yr
n .4617282154957249 0.00064874 deg/d
Q 2.462049262255497 0.0023062 au
  Orbit Determination Parameters
   # obs. used (total)      80  
   data-arc span      8 days  
   first obs. used      2020-03-26  
   last obs. used      2020-04-03  
   planetary ephem.      DE441  
   SB-pert. ephem.      SB441-N16  
   condition code      7  
   norm. resid. RMS      .30548  
   source      ORB  
   producer      Otto Matic  
   solution date      2021-Apr-15 22:21:16  

Additional Information
 Earth MOID = .0128777 au 
 Jupiter MOID = 2.60407 au 
 T_jup = 4.124 
[ show covariance matrix ]

Ephemeris | Orbit Diagram | Orbital Elements | Mission Design | Physical Parameters | Close-Approach Data ]

Physical Parameter Table
Parameter Symbol Value Units Sigma Reference Notes
absolute magnitude H 25.3   .36627 E2020G29 autocmod 2.8

[ show close-approach data ]
Ephemeris | Orbit Diagram | Orbital Elements | Mission Design | Physical Parameters | Close-Approach Data ]
ABOUT SSD CREDITS/AWARDS PRIVACY/COPYRIGHT GLOSSARY LINKS
FirstGov 2021-Jul-29 16:57 UT
(server date/time)  
NASA Home Page
Site Manager:   Ryan S. Park
Webmaster  Alan B. Chamberlin